NKS1137 KMCO-KLAS

Flight info

Callsign NKS1137
Flight time 4h 41m
Altitude 32000
Route RDSOX1 JFRYS PATOY Q116 JAWJA CABLO MEI/N0472F340 ELD ADM KA30Y GUP HAHAA RKSTR4
Aircraft A21N/M-SDE2E3FGHIRWXY/LB1

Departure

Time 2026-05-06 23:29
Airport Orlando International Airport (KMCO)

Arrival

Time 2026-05-07 04:11
Airport Harry Reid International Airport (KLAS)
Time Latitude Longitude Altitude Speed Heading
2026-05-06 23:03 28.42689 -81.31217 87 ft 0 kts 282°
2026-05-06 23:13 28.42689 -81.31216 87 ft 0 kts 282°
2026-05-06 23:13 28.42687 -81.31202 87 ft 2 kts 281°
2026-05-06 23:14 28.42684 -81.31185 87 ft 2 kts 282°
2026-05-06 23:14 28.42681 -81.31170 87 ft 0 kts 282°
2026-05-06 23:14 28.42680 -81.31157 87 ft 2 kts 253°
2026-05-06 23:14 28.42688 -81.31142 87 ft 2 kts 216°
2026-05-06 23:15 28.42702 -81.31137 87 ft 2 kts 178°
2026-05-06 23:15 28.42709 -81.31138 87 ft 1 kts 161°
2026-05-06 23:15 28.42713 -81.31139 87 ft 0 kts 166°
2026-05-06 23:18 28.42704 -81.31137 87 ft 3 kts 165°
2026-05-06 23:19 28.42668 -81.31127 87 ft 7 kts 169°
2026-05-06 23:19 28.42607 -81.31132 87 ft 10 kts 206°
2026-05-06 23:19 28.42539 -81.31180 87 ft 13 kts 213°
2026-05-06 23:19 28.42451 -81.31242 87 ft 15 kts 213°
2026-05-06 23:20 28.42362 -81.31325 87 ft 17 kts 245°
2026-05-06 23:20 28.42348 -81.31461 88 ft 17 kts 267°
2026-05-06 23:20 28.42349 -81.31605 89 ft 18 kts 269°
2026-05-06 23:20 28.42347 -81.31747 89 ft 17 kts 269°
2026-05-06 23:21 28.42409 -81.31832 90 ft 15 kts 358°
2026-05-06 23:21 28.42525 -81.31834 90 ft 17 kts 359°
2026-05-06 23:21 28.42646 -81.31836 90 ft 17 kts 359°
2026-05-06 23:21 28.42774 -81.31837 90 ft 18 kts
2026-05-06 23:22 28.42904 -81.31838 90 ft 19 kts 359°
2026-05-06 23:22 28.43041 -81.31840 90 ft 19 kts 359°
2026-05-06 23:22 28.43176 -81.31840 90 ft 19 kts
2026-05-06 23:22 28.43308 -81.31840 91 ft 17 kts 360°
2026-05-06 23:23 28.43428 -81.31842 91 ft 16 kts 359°
2026-05-06 23:23 28.43538 -81.31844 91 ft 15 kts 359°
2026-05-06 23:23 28.43638 -81.31844 91 ft 13 kts 359°
2026-05-06 23:23 28.43731 -81.31845 92 ft 12 kts
2026-05-06 23:24 28.43820 -81.31846 92 ft 12 kts 360°
2026-05-06 23:24 28.43912 -81.31848 92 ft 13 kts 353°
2026-05-06 23:24 28.44002 -81.31878 92 ft 13 kts 342°
2026-05-06 23:24 28.44093 -81.31898 93 ft 13 kts 356°
2026-05-06 23:25 28.44189 -81.31901 93 ft 14 kts
2026-05-06 23:25 28.44293 -81.31900 93 ft 15 kts 359°
2026-05-06 23:25 28.44406 -81.31901 93 ft 16 kts
2026-05-06 23:25 28.44526 -81.31903 93 ft 17 kts 358°
2026-05-06 23:26 28.44648 -81.31905 93 ft 17 kts
2026-05-06 23:26 28.44771 -81.31905 93 ft 15 kts 359°
2026-05-06 23:26 28.44827 -81.31977 93 ft 12 kts 270°
2026-05-06 23:26 28.44826 -81.32067 93 ft 10 kts 270°
2026-05-06 23:27 28.44826 -81.32153 93 ft 11 kts 270°
2026-05-06 23:27 28.44823 -81.32219 93 ft 5 kts 237°
2026-05-06 23:27 28.44795 -81.32230 93 ft 0 kts 179°
2026-05-06 23:28 28.44764 -81.32229 93 ft 25 kts 179°
2026-05-06 23:28 28.44324 -81.32225 93 ft 98 kts 180°
2026-05-06 23:29 28.43423 -81.32217 93 ft 157 kts 179°
2026-05-06 23:29 28.42200 -81.32200 361 ft 179 kts 178°
2026-05-06 23:29 28.41018 -81.32172 1065 ft 172 kts 176°
2026-05-06 23:29 28.39783 -81.32171 1585 ft 182 kts 180°
2026-05-06 23:30 28.38519 -81.32449 2085 ft 189 kts 201°
2026-05-06 23:30 28.37348 -81.33206 2337 ft 198 kts 211°
2026-05-06 23:30 28.36153 -81.34075 2538 ft 208 kts 211°
2026-05-06 23:30 28.35012 -81.35133 2676 ft 223 kts 234°
2026-05-06 23:31 28.34602 -81.36898 2802 ft 241 kts 276°
2026-05-06 23:31 28.34944 -81.38790 3065 ft 254 kts 284°
2026-05-06 23:31 28.35402 -81.40809 3334 ft 268 kts 283°
2026-05-06 23:31 28.35817 -81.42886 3759 ft 274 kts 282°
2026-05-06 23:32 28.36190 -81.45026 4298 ft 276 kts 281°
2026-05-06 23:32 28.36528 -81.47177 4827 ft 279 kts 280°
2026-05-06 23:32 28.36848 -81.49352 5362 ft 281 kts 280°
2026-05-06 23:32 28.37159 -81.51548 5909 ft 282 kts 280°
2026-05-06 23:33 28.37466 -81.53745 6402 ft 286 kts 279°
2026-05-06 23:33 28.37777 -81.55994 6909 ft 289 kts 279°
2026-05-06 23:33 28.38078 -81.58219 7456 ft 289 kts 279°
2026-05-06 23:33 28.38396 -81.60584 8044 ft 289 kts 279°
2026-05-06 23:34 28.38698 -81.62837 8589 ft 290 kts 279°
2026-05-06 23:34 28.39002 -81.65098 9117 ft 290 kts 279°
2026-05-06 23:34 28.39306 -81.67358 9632 ft 291 kts 279°
2026-05-06 23:34 28.39610 -81.69643 10125 ft 292 kts 279°
2026-05-06 23:35 28.39914 -81.71922 10416 ft 301 kts 279°
2026-05-06 23:35 28.40236 -81.74322 10701 ft 312 kts 279°
2026-05-06 23:35 28.40571 -81.76825 10944 ft 324 kts 279°
2026-05-06 23:35 28.40910 -81.79364 11143 ft 335 kts 279°
2026-05-06 23:36 28.41280 -81.82142 11365 ft 346 kts 279°
2026-05-06 23:36 28.41641 -81.84875 11706 ft 351 kts 279°
2026-05-06 23:36 28.42001 -81.87597 12165 ft 352 kts 279°
2026-05-06 23:36 28.42353 -81.90353 12607 ft 353 kts 278°
2026-05-06 23:37 28.42572 -81.93117 13050 ft 355 kts 275°
2026-05-06 23:37 28.42650 -81.95927 13499 ft 356 kts 273°
2026-05-06 23:37 28.42825 -81.98704 13876 ft 356 kts 284°
2026-05-06 23:37 28.43871 -82.01220 14206 ft 356 kts 309°
2026-05-06 23:38 28.45713 -82.03129 14653 ft 355 kts 321°
2026-05-06 23:38 28.47635 -82.04923 15024 ft 357 kts 319°
2026-05-06 23:38 28.49553 -82.06776 15392 ft 359 kts 319°
2026-05-06 23:38 28.51422 -82.08621 15755 ft 361 kts 318°
2026-05-06 23:39 28.53323 -82.10522 16092 ft 363 kts 317°
2026-05-06 23:39 28.55222 -82.12437 16437 ft 365 kts 317°
2026-05-06 23:39 28.57135 -82.14374 16790 ft 366 kts 317°
2026-05-06 23:39 28.59036 -82.16309 17128 ft 368 kts 317°
2026-05-06 23:40 28.60944 -82.18253 17459 ft 369 kts 317°
2026-05-06 23:40 28.62870 -82.20219 17796 ft 370 kts 317°
2026-05-06 23:40 28.64787 -82.22178 18154 ft 371 kts 316°
2026-05-06 23:40 28.66714 -82.24149 18506 ft 371 kts 316°
2026-05-06 23:41 28.68626 -82.26105 18847 ft 372 kts 316°
2026-05-06 23:41 28.70567 -82.28094 19191 ft 372 kts 316°
2026-05-06 23:41 28.72480 -82.30054 19523 ft 372 kts 316°
2026-05-06 23:41 28.74421 -82.32043 19859 ft 373 kts 316°
2026-05-06 23:42 28.76334 -82.34006 20193 ft 373 kts 316°
2026-05-06 23:42 28.78257 -82.35980 20517 ft 373 kts 315°
2026-05-06 23:42 28.80202 -82.37978 20842 ft 374 kts 315°
2026-05-06 23:42 28.82124 -82.39953 21133 ft 375 kts 315°
2026-05-06 23:43 28.84083 -82.41967 21424 ft 376 kts 315°
2026-05-06 23:43 28.86013 -82.43954 21706 ft 377 kts 315°
2026-05-06 23:43 28.87974 -82.45972 22008 ft 377 kts 315°
2026-05-06 23:43 28.89922 -82.47980 22300 ft 378 kts 315°
2026-05-06 23:44 28.91861 -82.49977 22596 ft 378 kts 315°
2026-05-06 23:44 28.93816 -82.51994 22875 ft 378 kts 315°
2026-05-06 23:44 28.95756 -82.53996 23120 ft 379 kts 315°
2026-05-06 23:44 28.97738 -82.56042 23359 ft 381 kts 314°
2026-05-06 23:45 28.99706 -82.58073 23606 ft 382 kts 314°
2026-05-06 23:45 29.01688 -82.60123 23856 ft 383 kts 314°
2026-05-06 23:45 29.03666 -82.62168 24102 ft 383 kts 314°
2026-05-06 23:45 29.05658 -82.64228 24324 ft 385 kts 314°
2026-05-06 23:46 29.07647 -82.66286 24538 ft 386 kts 314°
2026-05-06 23:46 29.09656 -82.68366 24780 ft 387 kts 314°
2026-05-06 23:46 29.11666 -82.70448 25018 ft 388 kts 314°
2026-05-06 23:46 29.13736 -82.72595 25240 ft 390 kts 314°
2026-05-06 23:47 29.15809 -82.74745 25479 ft 391 kts 314°
2026-05-06 23:47 29.17883 -82.76899 25728 ft 391 kts 314°
2026-05-06 23:47 29.19938 -82.79032 25960 ft 392 kts 313°
2026-05-06 23:47 29.21967 -82.81139 26180 ft 393 kts 314°
2026-05-06 23:48 29.24033 -82.83287 26389 ft 394 kts 314°
2026-05-06 23:48 29.26108 -82.85445 26583 ft 395 kts 313°
2026-05-06 23:48 29.28149 -82.87569 26800 ft 396 kts 313°
2026-05-06 23:48 29.30198 -82.89703 26991 ft 397 kts 313°
2026-05-06 23:49 29.32245 -82.91836 27160 ft 399 kts 313°
2026-05-06 23:49 29.34302 -82.93979 27339 ft 400 kts 313°
2026-05-06 23:49 29.36378 -82.96145 27532 ft 401 kts 313°
2026-05-06 23:49 29.38437 -82.98295 27719 ft 402 kts 313°
2026-05-06 23:50 29.40519 -83.00469 27909 ft 403 kts 313°
2026-05-06 23:50 29.44698 -83.04838 28305 ft 403 kts 313°
2026-05-06 23:50 29.46791 -83.07028 28495 ft 404 kts 313°
2026-05-06 23:51 29.48880 -83.09213 28656 ft 405 kts 313°
2026-05-06 23:51 29.50955 -83.11386 28826 ft 406 kts 313°
2026-05-06 23:51 29.53069 -83.13602 29008 ft 407 kts 313°
2026-05-06 23:51 29.55178 -83.15813 29186 ft 407 kts 313°
2026-05-06 23:52 29.57293 -83.18031 29391 ft 407 kts 313°
2026-05-06 23:52 29.59393 -83.20236 29643 ft 405 kts 313°
2026-05-06 23:52 29.61520 -83.22471 29872 ft 405 kts 313°
2026-05-06 23:52 29.63607 -83.24664 30087 ft 404 kts 313°
2026-05-06 23:53 29.65697 -83.26864 30302 ft 403 kts 313°
2026-05-06 23:53 29.67776 -83.29050 30501 ft 403 kts 313°
2026-05-06 23:53 29.69841 -83.31226 30697 ft 402 kts 313°
2026-05-06 23:53 29.71909 -83.33405 30918 ft 401 kts 313°
2026-05-06 23:54 29.74004 -83.35613 31116 ft 400 kts 313°
2026-05-06 23:54 29.76075 -83.37798 31314 ft 400 kts 313°
2026-05-06 23:54 29.78109 -83.39944 31513 ft 399 kts 313°
2026-05-06 23:54 29.80168 -83.42117 31680 ft 399 kts 313°
2026-05-06 23:55 29.82219 -83.44287 31844 ft 399 kts 313°
2026-05-06 23:55 29.84266 -83.46451 32007 ft 398 kts 313°
2026-05-06 23:55 29.88369 -83.50788 32023 ft 397 kts 313°
2026-05-06 23:56 29.92426 -83.55090 32029 ft 396 kts 313°
2026-05-06 23:56 29.96489 -83.59399 32031 ft 396 kts 313°
2026-05-06 23:57 30.00527 -83.63686 32033 ft 396 kts 313°
2026-05-06 23:57 30.04619 -83.68040 32035 ft 395 kts 312°
2026-05-06 23:58 30.08673 -83.72356 32033 ft 395 kts 312°
2026-05-06 23:58 30.12735 -83.76685 32028 ft 395 kts 311°
2026-05-06 23:59 30.16547 -83.81184 32017 ft 392 kts 307°
2026-05-06 23:59 30.19977 -83.86103 32020 ft 389 kts 302°
2026-05-07 00:00 30.23052 -83.91210 32015 ft 388 kts 301°
2026-05-07 00:00 30.26088 -83.96315 32012 ft 388 kts 301°
2026-05-07 00:01 30.29135 -84.01459 32004 ft 387 kts 301°
2026-05-07 00:01 30.32182 -84.06607 32005 ft 388 kts 301°
2026-05-07 00:02 30.35221 -84.11753 32007 ft 387 kts 301°
2026-05-07 00:02 30.38252 -84.16892 32009 ft 387 kts 301°
2026-05-07 00:03 30.41286 -84.22038 32012 ft 387 kts 300°
2026-05-07 00:03 30.44322 -84.27201 32014 ft 386 kts 301°
2026-05-07 00:04 30.47347 -84.32346 32011 ft 387 kts 300°
2026-05-07 00:04 30.50365 -84.37491 32010 ft 386 kts 300°
2026-05-07 00:05 30.53365 -84.42612 32007 ft 385 kts 300°
2026-05-07 00:05 30.56373 -84.47752 32004 ft 385 kts 300°
2026-05-07 00:06 30.59375 -84.52884 32002 ft 385 kts 300°
2026-05-07 00:06 30.62366 -84.58012 32001 ft 386 kts 300°
2026-05-07 00:07 30.65365 -84.63158 32001 ft 385 kts 301°
2026-05-07 00:07 30.68378 -84.68329 32002 ft 385 kts 300°
2026-05-07 00:08 30.71364 -84.73463 32000 ft 384 kts 300°
2026-05-07 00:08 30.74351 -84.78604 31992 ft 384 kts 300°
2026-05-07 00:09 30.77213 -84.83784 31984 ft 382 kts 296°
2026-05-07 00:09 30.79691 -84.89229 31980 ft 380 kts 294°
2026-05-07 00:10 30.82037 -84.94712 31975 ft 380 kts 293°
2026-05-07 00:10 30.84379 -85.00206 31973 ft 380 kts 293°
2026-05-07 00:11 30.86720 -85.05708 31973 ft 380 kts 293°
2026-05-07 00:11 30.89051 -85.11197 31973 ft 379 kts 293°
2026-05-07 00:12 30.91385 -85.16714 31973 ft 378 kts 293°
2026-05-07 00:12 30.93697 -85.22179 31972 ft 379 kts 293°
2026-05-07 00:13 30.96021 -85.27679 31971 ft 379 kts 293°
2026-05-07 00:13 30.98345 -85.33192 31972 ft 378 kts 293°
2026-05-07 00:14 31.00649 -85.38656 31969 ft 378 kts 293°
2026-05-07 00:14 31.02972 -85.44185 31972 ft 379 kts 293°
2026-05-07 00:15 31.05285 -85.49693 31975 ft 380 kts 293°
2026-05-07 00:15 31.07589 -85.55187 31977 ft 379 kts 293°
2026-05-07 00:16 31.09902 -85.60719 31971 ft 379 kts 293°
2026-05-07 00:16 31.12212 -85.66242 31977 ft 379 kts 292°
2026-05-07 00:17 31.14503 -85.71735 31977 ft 379 kts 292°
2026-05-07 00:17 31.16813 -85.77273 31976 ft 379 kts 292°
2026-05-07 00:18 31.19117 -85.82815 31972 ft 379 kts 292°
2026-05-07 00:18 31.21419 -85.88354 31972 ft 379 kts 292°
2026-05-07 00:19 31.23709 -85.93877 31975 ft 379 kts 293°
2026-05-07 00:19 31.25992 -85.99383 31972 ft 379 kts 292°
2026-05-07 00:20 31.28285 -86.04929 31972 ft 379 kts 293°
2026-05-07 00:20 31.30568 -86.10458 31967 ft 378 kts 293°
2026-05-07 00:21 31.32852 -86.15997 31962 ft 378 kts 292°
2026-05-07 00:21 31.35123 -86.21518 31961 ft 378 kts 293°
2026-05-07 00:22 31.37405 -86.27065 31964 ft 378 kts 292°
2026-05-07 00:22 31.39684 -86.32619 31962 ft 378 kts 292°
2026-05-07 00:23 31.41942 -86.38126 31959 ft 378 kts 293°
2026-05-07 00:23 31.44208 -86.43668 31958 ft 378 kts 292°
2026-05-07 00:24 31.46487 -86.49246 31957 ft 379 kts 292°
2026-05-07 00:24 31.48749 -86.54791 31955 ft 379 kts 292°
2026-05-07 00:25 31.51017 -86.60365 31956 ft 379 kts 292°
2026-05-07 00:25 31.53284 -86.65941 31954 ft 379 kts 292°
2026-05-07 00:26 31.55558 -86.71541 31954 ft 384 kts 292°
2026-05-07 00:26 31.57847 -86.77190 31952 ft 393 kts 292°
2026-05-07 00:27 31.60195 -86.82990 31951 ft 400 kts 292°
2026-05-07 00:27 31.62616 -86.88983 31948 ft 403 kts 292°
2026-05-07 00:28 31.65013 -86.94917 31947 ft 404 kts 292°
2026-05-07 00:28 31.67411 -87.00874 31947 ft 404 kts 292°
2026-05-07 00:29 31.69800 -87.06815 31943 ft 403 kts 292°
2026-05-07 00:30 31.74579 -87.18727 32062 ft 404 kts 292°
2026-05-07 00:30 31.75767 -87.21695 32201 ft 403 kts 292°
2026-05-07 00:30 31.76963 -87.24678 32324 ft 403 kts 292°
2026-05-07 00:31 31.78157 -87.27673 32440 ft 402 kts 292°
2026-05-07 00:31 31.79348 -87.30650 32546 ft 402 kts 292°
2026-05-07 00:31 31.81711 -87.36584 32743 ft 402 kts 292°
2026-05-07 00:32 31.82896 -87.39560 33039 ft 397 kts 292°
2026-05-07 00:32 31.84036 -87.42417 33635 ft 387 kts 291°
2026-05-07 00:32 31.85166 -87.45259 33914 ft 385 kts 291°
2026-05-07 00:32 31.86303 -87.48124 33909 ft 386 kts 291°
2026-05-07 00:33 31.88578 -87.53863 33914 ft 389 kts 292°
2026-05-07 00:33 31.90867 -87.59641 33915 ft 394 kts 292°
2026-05-07 00:34 31.93202 -87.65553 33913 ft 398 kts 291°
2026-05-07 00:34 31.95530 -87.71450 33914 ft 399 kts 291°
2026-05-07 00:35 31.97857 -87.77350 33910 ft 398 kts 291°
2026-05-07 00:35 32.00196 -87.83294 33911 ft 400 kts 291°
2026-05-07 00:36 32.02514 -87.89196 33910 ft 398 kts 291°
2026-05-07 00:36 32.04845 -87.95135 33909 ft 399 kts 291°
2026-05-07 00:37 32.07171 -88.01080 33906 ft 399 kts 291°
2026-05-07 00:37 32.09500 -88.07039 33906 ft 400 kts 291°
2026-05-07 00:38 32.11815 -88.12978 33909 ft 399 kts 291°
2026-05-07 00:38 32.14133 -88.18929 33908 ft 400 kts 291°
2026-05-07 00:39 32.16445 -88.24871 33909 ft 400 kts 291°
2026-05-07 00:39 32.18767 -88.30856 33906 ft 399 kts 291°
2026-05-07 00:40 32.21077 -88.36817 33914 ft 400 kts 291°
2026-05-07 00:40 32.23380 -88.42770 33915 ft 400 kts 290°
2026-05-07 00:41 32.25679 -88.48731 33914 ft 400 kts 290°
2026-05-07 00:41 32.27976 -88.54688 33912 ft 399 kts 290°
2026-05-07 00:42 32.30272 -88.60662 33914 ft 400 kts 290°
2026-05-07 00:42 32.32561 -88.66616 33915 ft 400 kts 290°
2026-05-07 00:43 32.34851 -88.72593 33915 ft 399 kts 289°
2026-05-07 00:43 32.37074 -88.78607 33911 ft 398 kts 287°
2026-05-07 00:44 32.38862 -88.84778 33919 ft 396 kts 282°
2026-05-07 00:44 32.40371 -88.91013 33917 ft 396 kts 282°
2026-05-07 00:45 32.41876 -88.97271 33920 ft 396 kts 282°
2026-05-07 00:45 32.43377 -89.03539 33916 ft 396 kts 282°
2026-05-07 00:46 32.44870 -89.09795 33929 ft 395 kts 282°
2026-05-07 00:46 32.46353 -89.16020 33930 ft 396 kts 281°
2026-05-07 00:47 32.47843 -89.22292 33922 ft 395 kts 282°
2026-05-07 00:47 32.49318 -89.28542 33934 ft 395 kts 282°
2026-05-07 00:48 32.50801 -89.34792 33936 ft 395 kts 281°
2026-05-07 00:48 32.52269 -89.41039 33935 ft 396 kts 282°
2026-05-07 00:49 32.53733 -89.47289 33927 ft 396 kts 282°
2026-05-07 00:49 32.55209 -89.53572 33935 ft 394 kts 281°
2026-05-07 00:50 32.56670 -89.59829 33927 ft 395 kts 281°
2026-05-07 00:50 32.58119 -89.66054 33934 ft 394 kts 281°
2026-05-07 00:51 32.59589 -89.72360 33926 ft 396 kts 281°
2026-05-07 00:51 32.61044 -89.78632 33931 ft 396 kts 281°
2026-05-07 00:52 32.62487 -89.84865 33925 ft 396 kts 281°
2026-05-07 00:52 32.63942 -89.91168 33932 ft 397 kts 280°
2026-05-07 00:53 32.65398 -89.97483 33933 ft 397 kts 280°
2026-05-07 00:53 32.66833 -90.03748 33933 ft 395 kts 280°
2026-05-07 00:54 32.68277 -90.10050 33935 ft 395 kts 280°
2026-05-07 00:54 32.69703 -90.16284 33933 ft 394 kts 280°
2026-05-07 00:55 32.71134 -90.22551 33937 ft 395 kts 280°
2026-05-07 00:55 32.72564 -90.28827 33939 ft 395 kts 280°
2026-05-07 00:56 32.73985 -90.35101 33940 ft 394 kts 279°
2026-05-07 00:56 32.75404 -90.41386 33943 ft 394 kts 279°
2026-05-07 00:57 32.76819 -90.47645 33940 ft 394 kts 280°
2026-05-07 00:57 32.78229 -90.53889 33940 ft 393 kts 280°
2026-05-07 00:58 32.79631 -90.60144 33947 ft 393 kts 279°
2026-05-07 00:58 32.81031 -90.66392 33948 ft 393 kts 279°
2026-05-07 00:59 32.83125 -90.75766 33952 ft 392 kts 279°
2026-05-07 01:00 32.84520 -90.82039 33960 ft 391 kts 279°
2026-05-07 01:00 32.85902 -90.88257 33953 ft 391 kts 279°
2026-05-07 01:01 32.87279 -90.94465 33959 ft 391 kts 279°
2026-05-07 01:01 32.88654 -91.00700 33959 ft 390 kts 279°
2026-05-07 01:02 32.90032 -91.06938 33958 ft 391 kts 279°
2026-05-07 01:02 32.91395 -91.13146 33958 ft 388 kts 279°
2026-05-07 01:03 32.92754 -91.19350 33963 ft 388 kts 278°
2026-05-07 01:03 32.94109 -91.25554 33960 ft 387 kts 279°
2026-05-07 01:04 32.95464 -91.31751 33959 ft 388 kts 279°
2026-05-07 01:04 32.96809 -91.37931 33963 ft 386 kts 278°
2026-05-07 01:05 32.98152 -91.44122 33964 ft 386 kts 278°
2026-05-07 01:05 32.99491 -91.50301 33963 ft 386 kts 278°
2026-05-07 01:06 33.00823 -91.56473 33960 ft 386 kts 279°
2026-05-07 01:06 33.02152 -91.62644 33964 ft 385 kts 278°
2026-05-07 01:07 33.03471 -91.68787 33967 ft 383 kts 278°
2026-05-07 01:07 33.04781 -91.74898 33966 ft 382 kts 277°
2026-05-07 01:08 33.06087 -91.81024 33967 ft 381 kts 277°
2026-05-07 01:08 33.07383 -91.87098 33971 ft 380 kts 278°
2026-05-07 01:09 33.08685 -91.93216 33970 ft 380 kts 277°
2026-05-07 01:09 33.09969 -91.99284 33968 ft 379 kts 277°
2026-05-07 01:10 33.11260 -92.05380 33970 ft 378 kts 277°
2026-05-07 01:10 33.12534 -92.11430 33966 ft 377 kts 277°
2026-05-07 01:11 33.13810 -92.17490 33973 ft 377 kts 277°
2026-05-07 01:11 33.15088 -92.23572 33980 ft 377 kts 277°
2026-05-07 01:12 33.16342 -92.29570 33976 ft 375 kts 277°
2026-05-07 01:12 33.17607 -92.35635 33982 ft 375 kts 277°
2026-05-07 01:13 33.18852 -92.41618 33981 ft 374 kts 277°
2026-05-07 01:13 33.20104 -92.47641 33980 ft 372 kts 277°
2026-05-07 01:14 33.21345 -92.53626 33979 ft 373 kts 277°
2026-05-07 01:14 33.22587 -92.59637 33984 ft 373 kts 277°
2026-05-07 01:15 33.23817 -92.65620 33997 ft 372 kts 276°
2026-05-07 01:15 33.25045 -92.71590 33990 ft 370 kts 276°
2026-05-07 01:16 33.26377 -92.77575 33999 ft 373 kts 278°
2026-05-07 01:16 33.27768 -92.83474 34001 ft 372 kts 278°
2026-05-07 01:17 33.29165 -92.89428 33998 ft 371 kts 277°
2026-05-07 01:17 33.30544 -92.95316 34003 ft 371 kts 278°
2026-05-07 01:18 33.31933 -93.01247 34002 ft 370 kts 278°
2026-05-07 01:18 33.33288 -93.07043 33999 ft 369 kts 278°
2026-05-07 01:19 33.34660 -93.12936 33998 ft 369 kts 277°
2026-05-07 01:19 33.36034 -93.18854 33997 ft 369 kts 277°
2026-05-07 01:20 33.37402 -93.24753 34000 ft 370 kts 277°
2026-05-07 01:20 33.38761 -93.30640 34003 ft 368 kts 278°
2026-05-07 01:21 33.40120 -93.36529 34005 ft 368 kts 278°
2026-05-07 01:21 33.41483 -93.42432 34000 ft 368 kts 278°
2026-05-07 01:22 33.42830 -93.48300 34012 ft 367 kts 278°
2026-05-07 01:22 33.44173 -93.54166 34004 ft 367 kts 278°
2026-05-07 01:23 33.45530 -93.60090 34003 ft 368 kts 277°
2026-05-07 01:23 33.46876 -93.65987 34011 ft 368 kts 277°
2026-05-07 01:24 33.48215 -93.71875 34012 ft 367 kts 277°
2026-05-07 01:24 33.49551 -93.77764 34012 ft 367 kts 276°
2026-05-07 01:25 33.50883 -93.83649 34013 ft 367 kts 277°
2026-05-07 01:25 33.52214 -93.89546 34015 ft 367 kts 277°
2026-05-07 01:26 33.53542 -93.95427 34015 ft 367 kts 277°
2026-05-07 01:26 33.54865 -94.01315 34010 ft 367 kts 277°
2026-05-07 01:27 33.56183 -94.07197 34014 ft 367 kts 277°
2026-05-07 01:27 33.57500 -94.13072 34014 ft 367 kts 277°
2026-05-07 01:28 33.58814 -94.18962 34012 ft 367 kts 277°
2026-05-07 01:28 33.60127 -94.24856 34012 ft 367 kts 277°
2026-05-07 01:29 33.61444 -94.30786 34010 ft 366 kts 277°
2026-05-07 01:29 33.62748 -94.36665 34012 ft 366 kts 276°
2026-05-07 01:30 33.64053 -94.42576 34008 ft 367 kts 276°
2026-05-07 01:30 33.65353 -94.48473 34011 ft 366 kts 277°
2026-05-07 01:31 33.66645 -94.54353 34007 ft 365 kts 277°
2026-05-07 01:31 33.67934 -94.60226 34013 ft 365 kts 277°
2026-05-07 01:32 33.69226 -94.66122 34022 ft 365 kts 276°
2026-05-07 01:32 33.70515 -94.72020 34014 ft 364 kts 276°
2026-05-07 01:33 33.71796 -94.77904 34013 ft 366 kts 276°
2026-05-07 01:33 33.73071 -94.83780 34016 ft 364 kts 276°
2026-05-07 01:34 33.74345 -94.89658 34014 ft 364 kts 276°
2026-05-07 01:34 33.75612 -94.95508 34017 ft 364 kts 276°
2026-05-07 01:35 33.76883 -95.01411 34017 ft 364 kts 276°
2026-05-07 01:35 33.78146 -95.07272 34018 ft 365 kts 276°
2026-05-07 01:36 33.79401 -95.13134 34022 ft 364 kts 276°
2026-05-07 01:36 33.80669 -95.19053 34019 ft 364 kts 276°
2026-05-07 01:37 33.81926 -95.24934 34023 ft 365 kts 276°
2026-05-07 01:37 33.83181 -95.30833 34025 ft 365 kts 276°
2026-05-07 01:38 33.84440 -95.36766 34025 ft 365 kts 276°
2026-05-07 01:38 33.85687 -95.42650 34027 ft 366 kts 276°
2026-05-07 01:39 33.86938 -95.48568 34028 ft 366 kts 276°
2026-05-07 01:39 33.88197 -95.54530 34028 ft 367 kts 275°
2026-05-07 01:40 33.89440 -95.60446 34028 ft 366 kts 275°
2026-05-07 01:40 33.90684 -95.66377 34034 ft 367 kts 275°
2026-05-07 01:41 33.91933 -95.72363 34031 ft 367 kts 275°
2026-05-07 01:41 33.93178 -95.78321 34030 ft 368 kts 275°
2026-05-07 01:42 33.94421 -95.84299 34027 ft 368 kts 275°
2026-05-07 01:42 33.95653 -95.90244 34026 ft 368 kts 275°
2026-05-07 01:43 33.96894 -95.96225 34026 ft 368 kts 275°
2026-05-07 01:43 33.98130 -96.02201 34028 ft 368 kts 275°
2026-05-07 01:44 33.99356 -96.08158 34026 ft 369 kts 275°
2026-05-07 01:44 34.00589 -96.14150 34027 ft 368 kts 275°
2026-05-07 01:45 34.01812 -96.20132 34038 ft 368 kts 275°
2026-05-07 01:45 34.03028 -96.26087 34041 ft 368 kts 275°
2026-05-07 01:46 34.04247 -96.32059 34044 ft 369 kts 274°
2026-05-07 01:46 34.05460 -96.38037 34046 ft 368 kts 275°
2026-05-07 01:47 34.06667 -96.44001 34047 ft 367 kts 275°
2026-05-07 01:47 34.07876 -96.49988 34040 ft 368 kts 275°
2026-05-07 01:48 34.09076 -96.55934 34044 ft 367 kts 274°
2026-05-07 01:48 34.10280 -96.61931 34038 ft 367 kts 274°
2026-05-07 01:49 34.11481 -96.67913 34045 ft 367 kts 274°
2026-05-07 01:49 34.12678 -96.73902 34046 ft 366 kts 274°
2026-05-07 01:50 34.13869 -96.79868 34046 ft 367 kts 274°
2026-05-07 01:50 34.15048 -96.85801 34049 ft 366 kts 274°
2026-05-07 01:51 34.16234 -96.91787 34052 ft 365 kts 274°
2026-05-07 01:51 34.17412 -96.97731 34043 ft 366 kts 273°
2026-05-07 01:52 34.18585 -97.03686 34052 ft 366 kts 273°
2026-05-07 01:52 34.19758 -97.09663 34054 ft 366 kts 273°
2026-05-07 01:53 34.20929 -97.15625 34058 ft 366 kts 273°
2026-05-07 01:53 34.22049 -97.21571 34060 ft 363 kts 273°
2026-05-07 01:54 34.23135 -97.27495 34065 ft 363 kts 273°
2026-05-07 01:54 34.24225 -97.33466 34062 ft 364 kts 273°
2026-05-07 01:55 34.25312 -97.39428 34060 ft 363 kts 273°
2026-05-07 01:55 34.26393 -97.45345 34062 ft 363 kts 273°
2026-05-07 01:56 34.27480 -97.51330 34059 ft 364 kts 273°
2026-05-07 01:56 34.28554 -97.57272 34063 ft 364 kts 273°
2026-05-07 01:57 34.29630 -97.63215 34059 ft 363 kts 273°
2026-05-07 01:57 34.30703 -97.69183 34062 ft 362 kts 272°
2026-05-07 01:58 34.31772 -97.75128 34064 ft 362 kts 273°
2026-05-07 01:58 34.32842 -97.81102 34063 ft 362 kts 273°
2026-05-07 01:59 34.33900 -97.87020 34066 ft 362 kts 273°
2026-05-07 01:59 34.34957 -97.92963 34066 ft 362 kts 272°
2026-05-07 02:00 34.36017 -97.98925 34068 ft 362 kts 272°
2026-05-07 02:00 34.37068 -98.04873 34070 ft 362 kts 273°
2026-05-07 02:01 34.38123 -98.10852 34071 ft 361 kts 272°
2026-05-07 02:01 34.39162 -98.16757 34072 ft 361 kts 273°
2026-05-07 02:02 34.40209 -98.22739 34066 ft 361 kts 273°
2026-05-07 02:02 34.41252 -98.28689 34064 ft 362 kts 273°
2026-05-07 02:03 34.42291 -98.34647 34064 ft 363 kts 272°
2026-05-07 02:03 34.43329 -98.40614 34064 ft 363 kts 273°
2026-05-07 02:04 34.44367 -98.46602 34062 ft 363 kts 272°
2026-05-07 02:04 34.45403 -98.52605 34064 ft 363 kts 273°
2026-05-07 02:05 34.46437 -98.58608 34063 ft 362 kts 272°
2026-05-07 02:05 34.47459 -98.64571 34064 ft 363 kts 273°
2026-05-07 02:06 34.48484 -98.70568 34066 ft 361 kts 272°
2026-05-07 02:06 34.49502 -98.76520 34063 ft 362 kts 272°
2026-05-07 02:07 34.50516 -98.82484 34062 ft 362 kts 272°
2026-05-07 02:07 34.52035 -98.91462 34062 ft 363 kts 272°
2026-05-07 02:08 34.53043 -98.97452 34060 ft 362 kts 272°
2026-05-07 02:08 34.54048 -99.03429 34062 ft 362 kts 272°
2026-05-07 02:09 34.55052 -99.09415 34059 ft 362 kts 272°
2026-05-07 02:09 34.56056 -99.15392 34061 ft 363 kts 272°
2026-05-07 02:10 34.57063 -99.21434 34063 ft 364 kts 272°
2026-05-07 02:10 34.58059 -99.27423 34064 ft 365 kts 272°
2026-05-07 02:11 34.59058 -99.33468 34067 ft 365 kts 272°
2026-05-07 02:11 34.60050 -99.39485 34068 ft 364 kts 273°
2026-05-07 02:12 34.61040 -99.45486 34068 ft 364 kts 273°
2026-05-07 02:12 34.62028 -99.51527 34068 ft 365 kts 273°
2026-05-07 02:13 34.63021 -99.57581 34067 ft 366 kts 272°
2026-05-07 02:13 34.64000 -99.63598 34069 ft 366 kts 272°
2026-05-07 02:14 34.64987 -99.69697 34074 ft 366 kts 272°
2026-05-07 02:14 34.65960 -99.75713 34070 ft 365 kts 272°
2026-05-07 02:15 34.66936 -99.81744 34070 ft 366 kts 272°
2026-05-07 02:15 34.67916 -99.87862 34073 ft 367 kts 272°
2026-05-07 02:16 34.68892 -99.93935 34072 ft 366 kts 272°
2026-05-07 02:16 34.69865 -100.00016 34074 ft 367 kts 272°
2026-05-07 02:17 34.70829 -100.06063 34074 ft 368 kts 272°
2026-05-07 02:17 34.71797 -100.12180 34078 ft 367 kts 272°
2026-05-07 02:18 34.72757 -100.18259 34077 ft 367 kts 273°
2026-05-07 02:18 34.73716 -100.24329 34081 ft 367 kts 273°
2026-05-07 02:19 34.74676 -100.30431 34076 ft 367 kts 272°
2026-05-07 02:19 34.75623 -100.36486 34079 ft 367 kts 272°
2026-05-07 02:20 34.76574 -100.42574 34079 ft 366 kts 273°
2026-05-07 02:20 34.77513 -100.48626 34082 ft 365 kts 272°
2026-05-07 02:21 34.78449 -100.54657 34081 ft 365 kts 273°
2026-05-07 02:21 34.79380 -100.60701 34085 ft 366 kts 273°
2026-05-07 02:22 34.80316 -100.66781 34089 ft 365 kts 273°
2026-05-07 02:22 34.81246 -100.72842 34090 ft 364 kts 273°
2026-05-07 02:23 34.82171 -100.78891 34086 ft 363 kts 272°
2026-05-07 02:23 34.83089 -100.84931 34085 ft 364 kts 273°
2026-05-07 02:24 34.84007 -100.90968 34084 ft 363 kts 272°
2026-05-07 02:24 34.84916 -100.96990 34091 ft 363 kts 273°
2026-05-07 02:25 34.85823 -101.03006 34097 ft 362 kts 273°
2026-05-07 02:25 34.86733 -101.09036 34089 ft 363 kts 273°
2026-05-07 02:26 34.87611 -101.14898 34089 ft 362 kts 274°
2026-05-07 02:26 34.88508 -101.20937 34091 ft 361 kts 273°
2026-05-07 02:27 34.89397 -101.26942 34091 ft 360 kts 274°
2026-05-07 02:27 34.90287 -101.32910 34089 ft 361 kts 273°
2026-05-07 02:28 34.91167 -101.38903 34094 ft 359 kts 274°
2026-05-07 02:28 34.92042 -101.44841 34093 ft 357 kts 274°
2026-05-07 02:29 34.92916 -101.50786 34101 ft 356 kts 273°
2026-05-07 02:29 34.93784 -101.56720 34106 ft 356 kts 273°
2026-05-07 02:30 34.94640 -101.62631 34104 ft 356 kts 273°
2026-05-07 02:30 34.95503 -101.68572 34107 ft 355 kts 272°
2026-05-07 02:31 34.96357 -101.74501 34112 ft 353 kts 272°
2026-05-07 02:31 34.97201 -101.80360 34119 ft 354 kts 273°
2026-05-07 02:32 34.98042 -101.86247 34116 ft 352 kts 273°
2026-05-07 02:32 34.98885 -101.92133 34116 ft 352 kts 273°
2026-05-07 02:33 34.99721 -101.98009 34123 ft 352 kts 273°
2026-05-07 02:33 35.00365 -102.03852 34126 ft 349 kts 271°
2026-05-07 02:34 35.00949 -102.09731 34116 ft 349 kts 270°
2026-05-07 02:34 35.01522 -102.15601 34118 ft 349 kts 271°
2026-05-07 02:35 35.02090 -102.21462 34125 ft 349 kts 271°
2026-05-07 02:35 35.02655 -102.27325 34128 ft 349 kts 271°
2026-05-07 02:36 35.03214 -102.33196 34126 ft 349 kts 271°
2026-05-07 02:36 35.03769 -102.39055 34125 ft 350 kts 271°
2026-05-07 02:37 35.04332 -102.44974 34129 ft 350 kts 271°
2026-05-07 02:37 35.04883 -102.50851 34128 ft 351 kts 271°
2026-05-07 02:38 35.05432 -102.56773 34134 ft 351 kts 271°
2026-05-07 02:38 35.05984 -102.62691 34137 ft 353 kts 270°
2026-05-07 02:39 35.06533 -102.68626 34137 ft 352 kts 270°
2026-05-07 02:39 35.07080 -102.74560 34139 ft 352 kts 270°
2026-05-07 02:40 35.07627 -102.80518 34143 ft 354 kts 271°
2026-05-07 02:40 35.08169 -102.86439 34126 ft 351 kts 270°
2026-05-07 02:41 35.08699 -102.92346 34138 ft 353 kts 271°
2026-05-07 02:41 35.09239 -102.98322 34141 ft 353 kts 270°
2026-05-07 02:42 35.09772 -103.04264 34142 ft 354 kts 271°
2026-05-07 02:42 35.10307 -103.10278 34138 ft 355 kts 270°
2026-05-07 02:43 35.10834 -103.16278 34141 ft 355 kts 271°
2026-05-07 02:43 35.11360 -103.22249 34146 ft 358 kts 271°
2026-05-07 02:44 35.11892 -103.28303 34147 ft 358 kts 270°
2026-05-07 02:44 35.12420 -103.34337 34148 ft 360 kts 270°
2026-05-07 02:45 35.12942 -103.40427 34152 ft 360 kts 270°
2026-05-07 02:45 35.13464 -103.46487 34148 ft 363 kts 270°
2026-05-07 02:46 35.13986 -103.52608 34146 ft 364 kts 270°
2026-05-07 02:46 35.14505 -103.58731 34142 ft 364 kts 270°
2026-05-07 02:47 35.15027 -103.64876 34138 ft 366 kts 270°
2026-05-07 02:47 35.15543 -103.71066 34140 ft 365 kts 270°
2026-05-07 02:48 35.16056 -103.77236 34153 ft 367 kts 270°
2026-05-07 02:48 35.16574 -103.83448 34154 ft 369 kts 270°
2026-05-07 02:49 35.17086 -103.89643 34154 ft 367 kts 270°
2026-05-07 02:49 35.17592 -103.95829 34150 ft 368 kts 270°
2026-05-07 02:50 35.18096 -104.02062 34152 ft 371 kts 270°
2026-05-07 02:50 35.18609 -104.08354 34154 ft 372 kts 270°
2026-05-07 02:51 35.19107 -104.14616 34158 ft 372 kts 270°
2026-05-07 02:51 35.19611 -104.20888 34161 ft 373 kts 270°
2026-05-07 02:52 35.20106 -104.27175 34162 ft 372 kts 271°
2026-05-07 02:52 35.20602 -104.33485 34164 ft 375 kts 270°
2026-05-07 02:53 35.21102 -104.39855 34163 ft 377 kts 271°
2026-05-07 02:53 35.21595 -104.46238 34160 ft 376 kts 271°
2026-05-07 02:54 35.22086 -104.52615 34159 ft 379 kts 271°
2026-05-07 02:54 35.22579 -104.59030 34161 ft 380 kts 272°
2026-05-07 02:55 35.23075 -104.65507 34155 ft 381 kts 271°
2026-05-07 02:55 35.23560 -104.71968 34151 ft 381 kts 271°
2026-05-07 02:56 35.24046 -104.78445 34143 ft 381 kts 271°
2026-05-07 02:56 35.24525 -104.84901 34147 ft 383 kts 271°
2026-05-07 02:57 35.25003 -104.91397 34152 ft 384 kts 271°
2026-05-07 02:57 35.25479 -104.97864 34147 ft 384 kts 271°
2026-05-07 02:58 35.25952 -105.04392 34149 ft 384 kts 272°
2026-05-07 02:58 35.26426 -105.10895 34145 ft 384 kts 272°
2026-05-07 02:59 35.26888 -105.17410 34144 ft 387 kts 272°
2026-05-07 02:59 35.27359 -105.23976 34142 ft 385 kts 272°
2026-05-07 03:00 35.27817 -105.30500 34143 ft 388 kts 272°
2026-05-07 03:00 35.28283 -105.37116 34140 ft 388 kts 272°
2026-05-07 03:01 35.28739 -105.43717 34139 ft 390 kts 272°
2026-05-07 03:01 35.29192 -105.50341 34149 ft 390 kts 273°
2026-05-07 03:02 35.29646 -105.56933 34154 ft 391 kts 274°
2026-05-07 03:02 35.30099 -105.63601 34163 ft 392 kts 273°
2026-05-07 03:03 35.30547 -105.70290 34181 ft 392 kts 273°
2026-05-07 03:03 35.30988 -105.76945 34181 ft 394 kts 274°
2026-05-07 03:04 35.31437 -105.83691 34185 ft 395 kts 274°
2026-05-07 03:04 35.31876 -105.90382 34180 ft 397 kts 274°
2026-05-07 03:05 35.32313 -105.97123 34177 ft 398 kts 275°
2026-05-07 03:05 35.32760 -106.04017 34175 ft 399 kts 275°
2026-05-07 03:06 35.33202 -106.10856 34177 ft 401 kts 275°
2026-05-07 03:06 35.33632 -106.17682 34178 ft 400 kts 275°
2026-05-07 03:07 35.34061 -106.24514 34166 ft 404 kts 274°
2026-05-07 03:07 35.34487 -106.31363 34172 ft 406 kts 275°
2026-05-07 03:08 35.34914 -106.38300 34170 ft 407 kts 275°
2026-05-07 03:08 35.35338 -106.45220 34170 ft 409 kts 275°
2026-05-07 03:09 35.35756 -106.52162 34168 ft 411 kts 275°
2026-05-07 03:09 35.36176 -106.59153 34172 ft 414 kts 275°
2026-05-07 03:10 35.36595 -106.66240 34176 ft 415 kts 275°
2026-05-07 03:10 35.37011 -106.73269 34174 ft 417 kts 275°
2026-05-07 03:11 35.37419 -106.80423 34168 ft 422 kts 275°
2026-05-07 03:11 35.37832 -106.87532 34169 ft 422 kts 275°
2026-05-07 03:12 35.38241 -106.94698 34178 ft 423 kts 275°
2026-05-07 03:12 35.38647 -107.01911 34188 ft 426 kts 275°
2026-05-07 03:13 35.39051 -107.09135 34185 ft 428 kts 275°
2026-05-07 03:13 35.39449 -107.16396 34192 ft 428 kts 276°
2026-05-07 03:14 35.39852 -107.23711 34196 ft 431 kts 275°
2026-05-07 03:15 35.40445 -107.34738 34210 ft 431 kts 276°
2026-05-07 03:15 35.40830 -107.42064 34212 ft 434 kts 276°
2026-05-07 03:16 35.41221 -107.49500 34217 ft 437 kts 276°
2026-05-07 03:16 35.41604 -107.56925 34222 ft 439 kts 276°
2026-05-07 03:17 35.41988 -107.64450 34220 ft 441 kts 276°
2026-05-07 03:17 35.42368 -107.71940 34222 ft 440 kts 275°
2026-05-07 03:18 35.42743 -107.79470 34223 ft 443 kts 275°
2026-05-07 03:18 35.43118 -107.87024 34228 ft 445 kts 275°
2026-05-07 03:19 35.43483 -107.94565 34229 ft 445 kts 275°
2026-05-07 03:19 35.43849 -108.02190 34231 ft 446 kts 275°
2026-05-07 03:20 35.44205 -108.09763 34226 ft 449 kts 275°
2026-05-07 03:20 35.44563 -108.17410 34238 ft 450 kts 275°
2026-05-07 03:21 35.44915 -108.25077 34238 ft 451 kts 276°
2026-05-07 03:21 35.45261 -108.32732 34236 ft 455 kts 276°
2026-05-07 03:22 35.45614 -108.40528 34233 ft 458 kts 276°
2026-05-07 03:22 35.45960 -108.48328 34231 ft 460 kts 276°
2026-05-07 03:23 35.46299 -108.56131 34223 ft 462 kts 276°
2026-05-07 03:23 35.46637 -108.64009 34220 ft 466 kts 276°
2026-05-07 03:24 35.46976 -108.71992 34215 ft 468 kts 275°
2026-05-07 03:24 35.47304 -108.79964 34217 ft 470 kts 275°
2026-05-07 03:25 35.47603 -108.87965 34213 ft 471 kts 274°
2026-05-07 03:25 35.47663 -108.95994 34211 ft 473 kts 272°
2026-05-07 03:26 35.47694 -109.04079 34215 ft 476 kts 273°
2026-05-07 03:26 35.47722 -109.12202 34219 ft 477 kts 273°
2026-05-07 03:27 35.47747 -109.20346 34225 ft 476 kts 273°
2026-05-07 03:27 35.47766 -109.28416 34230 ft 475 kts 273°
2026-05-07 03:28 35.47782 -109.36561 34229 ft 475 kts 273°
2026-05-07 03:28 35.47793 -109.44648 34227 ft 477 kts 273°
2026-05-07 03:29 35.47800 -109.52795 34216 ft 477 kts 273°
2026-05-07 03:29 35.47798 -109.60889 34215 ft 478 kts 273°
2026-05-07 03:30 35.47792 -109.69019 34208 ft 478 kts 272°
2026-05-07 03:30 35.47778 -109.77164 34210 ft 478 kts 273°
2026-05-07 03:31 35.47763 -109.85342 34204 ft 479 kts 273°
2026-05-07 03:31 35.47740 -109.93600 34207 ft 479 kts 273°
2026-05-07 03:32 35.47713 -110.01771 34200 ft 480 kts 273°
2026-05-07 03:32 35.47678 -110.09943 34198 ft 480 kts 273°
2026-05-07 03:33 35.47639 -110.18101 34201 ft 480 kts 273°
2026-05-07 03:33 35.47594 -110.26271 34203 ft 480 kts 273°
2026-05-07 03:34 35.47545 -110.34450 34207 ft 480 kts 273°
2026-05-07 03:34 35.47489 -110.42617 34203 ft 481 kts 273°
2026-05-07 03:35 35.47427 -110.50829 34203 ft 481 kts 273°
2026-05-07 03:35 35.47361 -110.58991 34202 ft 482 kts 273°
2026-05-07 03:36 35.47287 -110.67217 34197 ft 482 kts 273°
2026-05-07 03:36 35.47210 -110.75440 34193 ft 483 kts 273°
2026-05-07 03:37 35.47126 -110.83697 34194 ft 484 kts 273°
2026-05-07 03:37 35.47036 -110.91953 34194 ft 483 kts 273°
2026-05-07 03:38 35.46941 -111.00179 34196 ft 484 kts 273°
2026-05-07 03:38 35.46839 -111.08463 34193 ft 485 kts 273°
2026-05-07 03:39 35.46731 -111.16732 34190 ft 485 kts 273°
2026-05-07 03:39 35.46621 -111.24989 34188 ft 485 kts 273°
2026-05-07 03:40 35.46502 -111.33273 34195 ft 485 kts 273°
2026-05-07 03:40 35.46378 -111.41516 34206 ft 486 kts 273°
2026-05-07 03:41 35.46248 -111.49773 34212 ft 486 kts 273°
2026-05-07 03:41 35.46113 -111.58066 34226 ft 487 kts 273°
2026-05-07 03:42 35.45972 -111.66314 34230 ft 486 kts 272°
2026-05-07 03:42 35.45825 -111.74630 34243 ft 487 kts 272°
2026-05-07 03:43 35.45730 -111.82882 34249 ft 486 kts 275°
2026-05-07 03:43 35.46216 -111.91080 34250 ft 482 kts 282°
2026-05-07 03:44 35.47218 -111.99187 34248 ft 481 kts 283°
2026-05-07 03:44 35.48258 -112.07307 34244 ft 481 kts 283°
2026-05-07 03:45 35.49280 -112.15425 34242 ft 480 kts 283°
2026-05-07 03:45 35.50304 -112.23645 34237 ft 481 kts 283°
2026-05-07 03:46 35.51313 -112.31814 34234 ft 481 kts 283°
2026-05-07 03:46 35.52314 -112.39970 34238 ft 481 kts 283°
2026-05-07 03:47 35.53323 -112.48239 34237 ft 480 kts 283°
2026-05-07 03:47 35.54328 -112.56532 34239 ft 480 kts 283°
2026-05-07 03:48 35.55324 -112.64787 34248 ft 480 kts 283°
2026-05-07 03:48 35.56307 -112.72987 34254 ft 480 kts 283°
2026-05-07 03:49 35.57299 -112.81313 34258 ft 481 kts 283°
2026-05-07 03:49 35.58294 -112.89726 34262 ft 480 kts 283°
2026-05-07 03:50 35.59282 -112.98100 34258 ft 479 kts 282°
2026-05-07 03:50 35.60232 -113.06237 33917 ft 471 kts 283°
2026-05-07 03:50 35.60691 -113.10187 33140 ft 473 kts 283°
2026-05-07 03:51 35.61168 -113.14265 32138 ft 479 kts 283°
2026-05-07 03:51 35.61637 -113.18295 31189 ft 483 kts 282°
2026-05-07 03:51 35.62111 -113.22387 30275 ft 486 kts 282°
2026-05-07 03:51 35.62594 -113.26585 29365 ft 487 kts 282°
2026-05-07 03:52 35.63088 -113.30909 28516 ft 485 kts 282°
2026-05-07 03:52 35.63582 -113.35255 27903 ft 479 kts 282°
2026-05-07 03:52 35.64034 -113.39246 27331 ft 474 kts 282°
2026-05-07 03:52 35.64502 -113.43391 26683 ft 470 kts 282°
2026-05-07 03:53 35.64947 -113.47321 26082 ft 465 kts 282°
2026-05-07 03:53 35.65471 -113.51231 25490 ft 459 kts 285°
2026-05-07 03:53 35.66079 -113.55009 24896 ft 455 kts 285°
2026-05-07 03:53 35.66712 -113.58836 24271 ft 451 kts 285°
2026-05-07 03:54 35.67335 -113.62594 23675 ft 447 kts 285°
2026-05-07 03:54 35.67956 -113.66359 23067 ft 443 kts 284°
2026-05-07 03:54 35.68568 -113.70088 22466 ft 439 kts 284°
2026-05-07 03:54 35.69185 -113.73862 21864 ft 435 kts 284°
2026-05-07 03:55 35.69792 -113.77596 21252 ft 432 kts 284°
2026-05-07 03:55 35.70381 -113.81220 20674 ft 428 kts 284°
2026-05-07 03:55 35.70971 -113.84860 20093 ft 424 kts 284°
2026-05-07 03:55 35.71551 -113.88447 19530 ft 420 kts 284°
2026-05-07 03:56 35.72149 -113.92155 18948 ft 416 kts 284°
2026-05-07 03:56 35.72713 -113.95656 18376 ft 413 kts 284°
2026-05-07 03:56 35.73273 -113.99136 17809 ft 410 kts 284°
2026-05-07 03:56 35.73830 -114.02612 17310 ft 405 kts 284°
2026-05-07 03:57 35.74384 -114.06097 16927 ft 398 kts 284°
2026-05-07 03:57 35.74919 -114.09454 16554 ft 390 kts 284°
2026-05-07 03:57 35.75471 -114.12904 16213 ft 381 kts 286°
2026-05-07 03:57 35.76226 -114.15979 15982 ft 366 kts 296°
2026-05-07 03:58 35.77305 -114.18719 15979 ft 346 kts 302°
2026-05-07 03:58 35.78450 -114.21294 15986 ft 328 kts 303°
2026-05-07 03:58 35.79524 -114.23674 15981 ft 315 kts 304°
2026-05-07 03:58 35.80585 -114.26032 15620 ft 315 kts 304°
2026-05-07 03:59 35.81628 -114.28370 15191 ft 315 kts 303°
2026-05-07 03:59 35.82686 -114.30754 14769 ft 314 kts 303°
2026-05-07 03:59 35.83801 -114.33112 14360 ft 310 kts 307°
2026-05-07 03:59 35.85041 -114.35309 13975 ft 305 kts 311°
2026-05-07 04:00 35.86391 -114.37485 13582 ft 303 kts 313°
2026-05-07 04:00 35.87710 -114.39590 13204 ft 300 kts 313°
2026-05-07 04:00 35.88966 -114.41595 12845 ft 297 kts 313°
2026-05-07 04:00 35.90222 -114.43599 12479 ft 295 kts 312°
2026-05-07 04:01 35.91477 -114.45606 12112 ft 293 kts 312°
2026-05-07 04:01 35.92701 -114.47570 11753 ft 291 kts 312°
2026-05-07 04:01 35.93925 -114.49535 11389 ft 289 kts 312°
2026-05-07 04:01 35.95152 -114.51506 11029 ft 287 kts 312°
2026-05-07 04:02 35.96349 -114.53433 10675 ft 285 kts 311°
2026-05-07 04:02 35.97572 -114.55417 10309 ft 283 kts 311°
2026-05-07 04:02 35.98770 -114.57363 9951 ft 281 kts 311°
2026-05-07 04:02 35.99935 -114.59255 9595 ft 280 kts 311°
2026-05-07 04:03 36.01122 -114.61183 9264 ft 277 kts 311°
2026-05-07 04:03 36.02299 -114.63097 8933 ft 275 kts 311°
2026-05-07 04:03 36.03471 -114.65025 8586 ft 274 kts 308°
2026-05-07 04:03 36.04519 -114.66997 8247 ft 274 kts 304°
2026-05-07 04:04 36.05510 -114.69003 7994 ft 268 kts 303°
2026-05-07 04:04 36.06437 -114.70905 7972 ft 256 kts 304°
2026-05-07 04:04 36.07190 -114.72868 7953 ft 247 kts 288°
2026-05-07 04:04 36.07416 -114.74963 7722 ft 249 kts 275°
2026-05-07 04:05 36.07454 -114.77105 7359 ft 250 kts 273°
2026-05-07 04:05 36.07458 -114.79246 7007 ft 247 kts 272°
2026-05-07 04:05 36.07451 -114.81335 6661 ft 243 kts 271°
2026-05-07 04:05 36.07440 -114.83466 6351 ft 241 kts 271°
2026-05-07 04:06 36.07429 -114.85603 6058 ft 238 kts 271°
2026-05-07 04:06 36.07420 -114.87579 5843 ft 223 kts 271°
2026-05-07 04:06 36.07412 -114.89481 5523 ft 211 kts 270°
2026-05-07 04:06 36.07406 -114.91229 5226 ft 200 kts 270°
2026-05-07 04:07 36.07401 -114.92930 4958 ft 196 kts 270°
2026-05-07 04:07 36.07397 -114.94570 4746 ft 186 kts 270°
2026-05-07 04:07 36.07393 -114.95979 4507 ft 174 kts 270°
2026-05-07 04:07 36.07390 -114.97446 4295 ft 172 kts 270°
2026-05-07 04:08 36.07387 -114.98894 4083 ft 161 kts 270°
2026-05-07 04:08 36.07384 -115.00237 3889 ft 156 kts 270°
2026-05-07 04:08 36.07381 -115.01582 3709 ft 156 kts 270°
2026-05-07 04:08 36.07379 -115.02924 3525 ft 155 kts 269°
2026-05-07 04:09 36.07377 -115.04259 3336 ft 155 kts 269°
2026-05-07 04:09 36.07375 -115.05594 3141 ft 155 kts 268°
2026-05-07 04:09 36.07369 -115.06926 2938 ft 154 kts 269°
2026-05-07 04:09 36.07363 -115.08247 2778 ft 154 kts 269°
2026-05-07 04:10 36.07361 -115.09576 2569 ft 154 kts 269°
2026-05-07 04:10 36.07361 -115.10886 2360 ft 153 kts 270°
2026-05-07 04:10 36.07365 -115.12201 2180 ft 152 kts 269°
2026-05-07 04:10 36.07365 -115.13480 2088 ft 139 kts 270°
2026-05-07 04:11 36.07365 -115.14486 2116 ft 83 kts 269°
2026-05-07 04:11 36.07401 -115.14885 2130 ft 33 kts 293°
2026-05-07 04:11 36.07484 -115.15070 2135 ft 2 kts 304°
2026-05-07 04:11 36.07485 -115.15071 2135 ft 0 kts 304°
2026-05-07 04:12 36.07486 -115.15073 2135 ft 0 kts 305°
2026-05-07 04:12 36.07497 -115.15090 2136 ft 6 kts 309°
2026-05-07 04:12 36.07551 -115.15143 2137 ft 14 kts 332°
2026-05-07 04:12 36.07657 -115.15208 2138 ft 18 kts 334°
2026-05-07 04:13 36.07791 -115.15285 2139 ft 23 kts 335°
2026-05-07 04:13 36.07938 -115.15369 2139 ft 22 kts 333°
2026-05-07 04:13 36.08072 -115.15442 2139 ft 19 kts 346°
2026-05-07 04:13 36.08194 -115.15433 2137 ft 11 kts
2026-05-07 04:14 36.08219 -115.15436 2137 ft 0 kts 345°
2026-05-07 04:14 36.08223 -115.15437 2137 ft 1 kts 345°
2026-05-07 04:14 36.08251 -115.15451 2137 ft 8 kts 338°
2026-05-07 04:14 36.08324 -115.15486 2136 ft 13 kts 349°
2026-05-07 04:15 36.08382 -115.15427 2134 ft 11 kts 66°
2026-05-07 04:15 36.08374 -115.15340 2132 ft 5 kts 141°
2026-05-07 04:15 36.08347 -115.15321 2132 ft 3 kts 158°
2026-05-07 04:15 36.08337 -115.15317 2132 ft 0 kts 158°